VOE2EM LFRS-LFMT

Flight info

Callsign VOE2EM
Flight time N/A
Altitude 33000
Route LUGEN UM184 TUPAR DCT CNA DCT SECHE DCT GAI G39 AFRIC G393 BRUSC
Aircraft A320/M-SDFGHIJ1RWY/LB1

Departure

Time N/A
Airport Nantes Atlantique Airport (LFRS)

Arrival

Time 2026-04-24 19:12
Airport Montpellier-Méditerranée Airport (LFMT)
Time Latitude Longitude Altitude Speed Heading
2026-04-24 18:54 43.74945 3.01099 17284 ft 354 kts 102°
2026-04-24 18:55 43.73816 3.07665 16550 ft 348 kts 102°
2026-04-24 18:55 43.73250 3.10901 16196 ft 345 kts 102°
2026-04-24 18:55 43.72684 3.14109 15844 ft 342 kts 102°
2026-04-24 18:56 43.72123 3.17291 15494 ft 339 kts 102°
2026-04-24 18:56 43.71566 3.20450 15147 ft 337 kts 102°
2026-04-24 18:56 43.71011 3.23578 14799 ft 334 kts 102°
2026-04-24 18:56 43.70465 3.26647 14463 ft 332 kts 102°
2026-04-24 18:57 43.69915 3.29738 14128 ft 330 kts 102°
2026-04-24 18:57 43.69369 3.32809 13774 ft 328 kts 102°
2026-04-24 18:57 43.68827 3.35858 13419 ft 325 kts 102°
2026-04-24 18:57 43.68288 3.38881 13095 ft 323 kts 102°
2026-04-24 18:58 43.67752 3.41881 12767 ft 321 kts 103°
2026-04-24 18:58 43.67223 3.44858 12440 ft 318 kts 102°
2026-04-24 18:58 43.66701 3.47831 12052 ft 318 kts 102°
2026-04-24 18:58 43.66184 3.50783 11718 ft 315 kts 102°
2026-04-24 18:59 43.65670 3.53712 11395 ft 313 kts 103°
2026-04-24 18:59 43.65163 3.56581 11088 ft 311 kts 103°
2026-04-24 18:59 43.64652 3.59470 10762 ft 309 kts 103°
2026-04-24 18:59 43.64146 3.62321 10527 ft 302 kts 103°
2026-04-24 19:00 43.63645 3.65129 10167 ft 301 kts 103°
2026-04-24 19:00 43.63145 3.67923 9822 ft 298 kts 103°
2026-04-24 19:00 43.62651 3.70682 9507 ft 295 kts 103°
2026-04-24 19:00 43.62155 3.73413 9204 ft 292 kts 105°
2026-04-24 19:01 43.61371 3.75990 8906 ft 291 kts 120°
2026-04-24 19:01 43.60221 3.78280 8607 ft 290 kts 126°
2026-04-24 19:01 43.59020 3.80515 8311 ft 289 kts 126°
2026-04-24 19:01 43.57842 3.82711 8072 ft 287 kts 127°
2026-04-24 19:02 43.57040 3.84205 7945 ft 286 kts 127°
2026-04-24 19:02 43.55481 3.87112 7629 ft 281 kts 127°
2026-04-24 19:02 43.54331 3.89250 7382 ft 274 kts 127°
2026-04-24 19:02 43.53209 3.91335 7129 ft 268 kts 127°
2026-04-24 19:03 43.52107 3.93382 6820 ft 264 kts 127°
2026-04-24 19:03 43.51020 3.95403 6509 ft 261 kts 127°
2026-04-24 19:03 43.49949 3.97400 6157 ft 258 kts 127°
2026-04-24 19:03 43.48897 3.99362 5777 ft 249 kts 127°
2026-04-24 19:04 43.47901 4.01218 5409 ft 239 kts 127°
2026-04-24 19:04 43.46937 4.03014 5113 ft 227 kts 127°
2026-04-24 19:04 43.46011 4.04738 4853 ft 222 kts 127°
2026-04-24 19:04 43.45098 4.06430 4567 ft 218 kts 127°
2026-04-24 19:05 43.44198 4.08095 4286 ft 216 kts 127°
2026-04-24 19:05 43.43307 4.09744 4009 ft 214 kts 127°
2026-04-24 19:05 43.42424 4.11379 3738 ft 212 kts 127°
2026-04-24 19:05 43.41548 4.13004 3467 ft 211 kts 126°
2026-04-24 19:06 43.40960 4.14800 3198 ft 210 kts 99°
2026-04-24 19:06 43.41091 4.16748 3095 ft 205 kts 70°
2026-04-24 19:06 43.41879 4.18356 3056 ft 204 kts 44°
2026-04-24 19:06 43.43064 4.19422 3057 ft 205 kts 22°
2026-04-24 19:07 43.44460 4.19798 3061 ft 206 kts 359°
2026-04-24 19:07 43.45854 4.19421 3064 ft 205 kts 336°
2026-04-24 19:07 43.46668 4.18783 3065 ft 204 kts 321°
2026-04-24 19:07 43.47882 4.16811 3062 ft 202 kts 303°
2026-04-24 19:08 43.48685 4.15223 2914 ft 202 kts 303°
2026-04-24 19:08 43.49477 4.13659 2680 ft 200 kts 303°
2026-04-24 19:08 43.50262 4.12111 2423 ft 195 kts 303°
2026-04-24 19:08 43.51029 4.10599 2163 ft 191 kts 303°
2026-04-24 19:09 43.51773 4.09140 1892 ft 180 kts 303°
2026-04-24 19:09 43.52457 4.07797 1724 ft 162 kts 302°
2026-04-24 19:09 43.53073 4.06595 1513 ft 148 kts 302°
2026-04-24 19:09 43.53654 4.05449 1264 ft 144 kts 302°
2026-04-24 19:10 43.54206 4.04297 1116 ft 145 kts 301°
2026-04-24 19:10 43.54778 4.03144 922 ft 146 kts 302°
2026-04-24 19:10 43.55376 4.01996 713 ft 149 kts 303°
2026-04-24 19:10 43.55956 4.00849 508 ft 145 kts 302°
2026-04-24 19:11 43.56522 3.99699 317 ft 144 kts 303°
2026-04-24 19:11 43.57100 3.98579 123 ft 142 kts 302°
2026-04-24 19:11 43.57642 3.97495 23 ft 126 kts 303°
2026-04-24 19:11 43.58068 3.96648 18 ft 89 kts 304°
2026-04-24 19:12 43.58296 3.96202 15 ft 16 kts 301°
2026-04-24 19:12 43.58305 3.96072 12 ft 15 kts 246°
2026-04-24 19:12 43.58250 3.95974 13 ft 12 kts 200°
2026-04-24 19:12 43.58184 3.96020 13 ft 11 kts 126°
2026-04-24 19:13 43.58156 3.96073 14 ft 9 kts 124°
2026-04-24 19:13 43.58117 3.96152 15 ft 7 kts 124°
2026-04-24 19:13 43.58084 3.96219 16 ft 9 kts 124°
2026-04-24 19:13 43.58037 3.96259 15 ft 8 kts 191°
2026-04-24 19:14 43.57991 3.96217 15 ft 9 kts 219°
2026-04-24 19:14 43.57955 3.96142 16 ft 11 kts 243°
2026-04-24 19:14 43.57933 3.96052 16 ft 3 kts 255°
2026-04-24 19:14 43.57931 3.96042 15 ft 0 kts 256°